Virtuous Striker — C6XX6 — position and weather

sailwx.info

Track history (hours):
 
Tides and Currents Weather Stations Pressure Air Temp Water Temp Dewpoint Dewpoint Depression Visibility Wind Speed Wind Dir Waves Ship Positions

Virtuous Striker

Last reported at 2016-Aug-23 14:33 UTC. Time now 2016-Aug-27 02:55 UTC.
Position N 35°60' W 005°17'.

Length 190 m; draft 6.8 m.

Type: Cargo ship. MMSI: 311025100.

Date/timePositionNaut miles runAvg speedWind from/ knotsBaromVisibWave heightAir tempDewpointWater temp
2016-Aug-23 14:33N 35°60' W 005°17'1212.2
2016-Aug-23 13:33N 35°56' W 005°31'1010.3
2016-Aug-23 12:34N 35°54' W 005°43'4310.1
2016-Aug-23 08:22N 35°27' W 006°24'1011.9
2016-Aug-23 07:32N 35°20' W 006°33'1512.2
2016-Aug-23 06:17N 35°11' W 006°47'912.7
2016-Aug-23 05:32N 35°04' W 006°56'1312.8
2016-Aug-23 04:33N 34°56' W 007°08'1212.3
2016-Aug-23 03:32N 34°48' W 007°19'1211.6
2016-Aug-23 02:32N 34°37' W 007°25'1211.9
2016-Aug-23 01:33N 34°27' W 007°33'1312.1
2016-Aug-23 00:30N 34°18' W 007°44'1111.6
2016-Aug-22 23:33N 34°11' W 007°54'1111.5
2016-Aug-22 22:33N 34°02' W 008°02'1211.8
2016-Aug-22 21:33N 33°53' W 008°11'1211.8
2016-Aug-22 20:33N 33°44' W 008°21'1111.1
2016-Aug-22 19:33N 33°36' W 008°30'1110.8
2016-Aug-22 18:33N 33°29' W 008°39'1110.8
2016-Aug-22 17:33N 33°21' W 008°48'1110.8
2016-Aug-22 16:34N 33°13' W 008°57'1210.6
2016-Aug-22 15:27N 33°04' W 009°07'1010.7
2016-Aug-22 14:32N 32°57' W 009°15'1110.9
2016-Aug-22 13:32N 32°49' W 009°24'1110.8
2016-Aug-22 12:33N 32°41' W 009°32'1111.0
2016-Aug-22 11:34N 32°33' W 009°41'1111.0
2016-Aug-22 10:34N 32°26' W 009°50'1111.2
2016-Aug-22 09:33N 32°18' W 009°59'1211.0
2016-Aug-22 08:25N 32°08' W 010°10'1011.5
2016-Aug-22 07:33N 32°02' W 010°18'1111.4
2016-Aug-22 06:33N 31°53' W 010°27'1111.0
2016-Aug-22 05:33N 31°45' W 010°35'1110.4
2016-Aug-22 04:29N 31°36' W 010°43'14 9.8
2016-Aug-22 03:06N 31°25' W 010°52'5 9.5
2016-Aug-22 02:34N 31°20' W 010°56'10 9.6
2016-Aug-22 01:34N 31°13' W 011°02'10 9.8
2016-Aug-22 00:33N 31°04' W 011°08'10 9.6
2016-Aug-21 23:34N 30°57' W 011°15'10 9.6
2016-Aug-21 22:34N 30°49' W 011°21'10 9.6
2016-Aug-21 21:33N 30°41' W 011°28'1210.1
2016-Aug-21 20:23N 30°31' W 011°36'810.0
2016-Aug-21 19:33N 30°24' W 011°41'1010.1
2016-Aug-21 18:33N 30°16' W 011°48'1110.5
2016-Aug-21 17:33N 30°08' W 011°55'3710.5
2016-Aug-21 14:05N 29°37' W 012°19'610.6
2016-Aug-21 13:33N 29°33' W 012°22'8810.8
2016-Aug-21 05:25N 28°21' W 013°20'1111.4
2016-Aug-21 04:27N 28°12' W 013°27'1011.2
2016-Aug-21 03:32N 28°04' W 013°34'1111.2
2016-Aug-21 02:31N 27°55' W 013°42'1111.2
2016-Aug-21 01:32N 27°45' W 013°49'1211.2
2016-Aug-21 00:30N 27°36' W 013°56'1111.2
2016-Aug-20 23:29N 27°26' W 014°03'2411.0
2016-Aug-20 21:18N 27°07' W 014°19'810.9
2016-Aug-20 20:34N 27°00' W 014°24'2610.8
2016-Aug-20 18:07N 26°39' W 014°41'  
Track history (hours):
 
Tides and Currents Weather Stations Pressure Air Temp Water Temp Dewpoint Dewpoint Depression Visibility Wind Speed Wind Dir Waves Ship Positions

Virtuous Striker

Last reported at 2016-Aug-23 14:33 UTC. Time now 2016-Aug-27 02:55 UTC.
Position N 35°60' W 005°17'.

Length 190 m; draft 6.8 m.

Type: Cargo ship. MMSI: 311025100.

Date/timePositionNaut miles runAvg speedWind from/ knotsBaromVisibWave heightAir tempDewpointWater temp
2016-Aug-23 14:33N 35°60' W 005°17'1212.2
2016-Aug-23 13:33N 35°56' W 005°31'1010.3
2016-Aug-23 12:34N 35°54' W 005°43'4310.1
2016-Aug-23 08:22N 35°27' W 006°24'1011.9
2016-Aug-23 07:32N 35°20' W 006°33'1512.2
2016-Aug-23 06:17N 35°11' W 006°47'912.7
2016-Aug-23 05:32N 35°04' W 006°56'1312.8
2016-Aug-23 04:33N 34°56' W 007°08'1212.3
2016-Aug-23 03:32N 34°48' W 007°19'1211.6
2016-Aug-23 02:32N 34°37' W 007°25'1211.9
2016-Aug-23 01:33N 34°27' W 007°33'1312.1
2016-Aug-23 00:30N 34°18' W 007°44'1111.6
2016-Aug-22 23:33N 34°11' W 007°54'1111.5
2016-Aug-22 22:33N 34°02' W 008°02'1211.8
2016-Aug-22 21:33N 33°53' W 008°11'1211.8
2016-Aug-22 20:33N 33°44' W 008°21'1111.1
2016-Aug-22 19:33N 33°36' W 008°30'1110.8
2016-Aug-22 18:33N 33°29' W 008°39'1110.8
2016-Aug-22 17:33N 33°21' W 008°48'1110.8
2016-Aug-22 16:34N 33°13' W 008°57'1210.6
2016-Aug-22 15:27N 33°04' W 009°07'1010.7
2016-Aug-22 14:32N 32°57' W 009°15'1110.9
2016-Aug-22 13:32N 32°49' W 009°24'1110.8
2016-Aug-22 12:33N 32°41' W 009°32'1111.0
2016-Aug-22 11:34N 32°33' W 009°41'1111.0
2016-Aug-22 10:34N 32°26' W 009°50'1111.2
2016-Aug-22 09:33N 32°18' W 009°59'1211.0
2016-Aug-22 08:25N 32°08' W 010°10'1011.5
2016-Aug-22 07:33N 32°02' W 010°18'1111.4
2016-Aug-22 06:33N 31°53' W 010°27'1111.0
2016-Aug-22 05:33N 31°45' W 010°35'1110.4
2016-Aug-22 04:29N 31°36' W 010°43'14 9.8
2016-Aug-22 03:06N 31°25' W 010°52'5 9.5
2016-Aug-22 02:34N 31°20' W 010°56'10 9.6
2016-Aug-22 01:34N 31°13' W 011°02'10 9.8
2016-Aug-22 00:33N 31°04' W 011°08'10 9.6
2016-Aug-21 23:34N 30°57' W 011°15'10 9.6
2016-Aug-21 22:34N 30°49' W 011°21'10 9.6
2016-Aug-21 21:33N 30°41' W 011°28'1210.1
2016-Aug-21 20:23N 30°31' W 011°36'810.0
2016-Aug-21 19:33N 30°24' W 011°41'1010.1
2016-Aug-21 18:33N 30°16' W 011°48'1110.5
2016-Aug-21 17:33N 30°08' W 011°55'3710.5
2016-Aug-21 14:05N 29°37' W 012°19'610.6
2016-Aug-21 13:33N 29°33' W 012°22'8810.8
2016-Aug-21 05:25N 28°21' W 013°20'1111.4
2016-Aug-21 04:27N 28°12' W 013°27'1011.2
2016-Aug-21 03:32N 28°04' W 013°34'1111.2
2016-Aug-21 02:31N 27°55' W 013°42'1111.2
2016-Aug-21 01:32N 27°45' W 013°49'1211.2
2016-Aug-21 00:30N 27°36' W 013°56'1111.2
2016-Aug-20 23:29N 27°26' W 014°03'2411.0
2016-Aug-20 21:18N 27°07' W 014°19'810.9
2016-Aug-20 20:34N 27°00' W 014°24'2610.8
2016-Aug-20 18:07N 26°39' W 014°41'  

Dump ship's entire track history